Miscellaneous Local Product
Issued by NWS Hastings, NE

Home | Current Version | Previous Version | Graphics & Text | Print | Product List | Glossary On
Versions: 1 2 3 4 5 6 7 8 9 10 11 12 13 14 15 16 17 18 19 20 21 22 23 24 25 26 27 28 29 30 31 32 33 34 35 36 37 38 39 40 41 42 43 44 45 46 47 48 49 50
000
AXUS43 KGID 250302
MISGRI

GID CWA HOURLY WEATHER ROUNDUP
NATIONAL WEATHER SERVICE HASTINGS NE
1000 PM CDT SAT JUN 24 2017

NOTE: "FAIR" INDICATES FEW OR NO CLOUDS BELOW 12,000 FEET WITH NO
SIGNIFICANT WEATHER AND/OR OBSTRUCTIONS TO VISIBILITY.

...SOUTH CENTRAL NEBRASKA...

CITY           SKY/WX    TMP DP  RH WIND       PRES   REMARKS
GRAND ISLAND   CLEAR     63  44  50 W6        30.22R
HASTINGS       CLEAR     65  43  44 CALM      30.23S
KEARNEY        CLEAR     66  37  34 CALM      30.24R
ORD            CLEAR     55  41  59 SW3       30.22R
YORK           CLEAR     63  45  51 CALM      30.20R
AURORA         CLEAR     60  47  62 W5        30.21R
LEXINGTON      CLEAR     65  39  38 NE3       30.25R
HOLDREGE       CLOUDY    63  42  46 NE6       30.25R
HEBRON         CLOUDY    68  49  51 CALM      30.21R

...NEBRASKA PANHANDLE...

CITY           SKY/WX    TMP DP  RH WIND       PRES   REMARKS
CHADRON        PTCLDY    60  40  47 NE7       30.28R
ALLIANCE       CLEAR     58  39  49 S5        30.28R
SCOTTSBLUFF    CLEAR     62  40  44 E7        30.29R
SIDNEY         CLEAR     56  39  53 E5        30.31R

...WESTERN AND NORTH CENTRAL NEBRASKA...

CITY           SKY/WX    TMP DP  RH WIND       PRES   REMARKS
VALENTINE      CLEAR     65  30  27 N8        30.26R
AINSWORTH      CLEAR     56  36  46 N9        30.25R
ONEILL         CLEAR     61  37  39 N7        30.22R
BROKEN BOW     MOCLDY    62  45  53 CALM      30.24R
IMPERIAL       CLEAR     59  48  67 SE6       30.27R
NORTH PLATTE   CLEAR     58  36  43 CALM      30.26R
MCCOOK         MOCLDY    66  49  54 CALM      30.25R

...EASTERN NEBRASKA...

CITY           SKY/WX    TMP DP  RH WIND       PRES   REMARKS
NORFOLK        CLEAR     63  38  39 NW7       30.19R
SO SIOUX CITY  CLEAR     63  41  44 N10       30.16R
TEKAMAH        CLEAR     61  38  42 NW8       30.16R
COLUMBUS       CLEAR     63  45  51 W3        30.20R
ALBION         CLEAR     58  40  50 N3        30.21R
OMAHA EPPLEY   PTCLDY    68  48  48 CALM      30.15R
OFFUTT AFB     CLEAR     62  47  58 NW5       30.15R
MILLARD        CLEAR     67  47  49 CALM      30.16R
LINCOLN        MOCLDY    71  42  35 W6        30.18R
NEBRASKA CITY  PTCLDY    67  49  52 W7        30.17R
BEATRICE       PTCLDY    64  49  58 W5        30.19R
FALLS CITY     PTCLDY    67  45  45 W9        30.16R

...NORTHERN KANSAS...

CITY           SKY/WX    TMP DP  RH WIND       PRES   REMARKS
GOODLAND       CLOUDY    66  49  54 E15       30.27R
HILL CITY      PTCLDY    65  49  56 E7        30.25R
NORTON         MOCLDY    64  45  48 CALM      30.24R
PHILLIPSBURG   PTCLDY    66  48  52 SE5       30.23R
SMITH CENTER   CLEAR     64  52  63 N6        30.23S
HAYS           CLEAR     67  50  54 E9        30.24R
RUSSELL        CLEAR     65  50  58 E8        30.22R
CONCORDIA      CLOUDY    67  53  61 W3        30.21R
SALINA         CLOUDY    77  43  29 E6        30.21R
TOPEKA         CLOUDY    71  57  61 CALM      30.18R



USA.gov is the U.S. government's official web portal to all federal, state and local government web resources and services.